| time (UTC) | temp F | wind direction | speed MPH | gust MPH | rain 1hr in | rain 24hr in | rain mn in | humidity % | barometer mb |
| 20260906112417 | 74 | 360 | 0.0 | 0.0 | 0.00 | 0.00 | 0.00 | 95 | 1012.9 |
| 20260906111917 | 74 | 360 | 0.0 | 0.0 | 0.00 | 0.00 | 0.00 | 95 | 1012.9 |
| 20260906111417 | 74 | 360 | 0.0 | 0.0 | 0.00 | 0.00 | 0.00 | 95 | 1012.8 |
| 20260906110919 | 74 | 360 | 0.0 | 0.0 | 0.00 | 0.00 | 0.00 | 95 | 1012.7 |
| 20260906110417 | 74 | 66 | 0.0 | 1.0 | 0.00 | 0.00 | 0.00 | 96 | 1012.6 |
| 20260906105917 | 74 | 104 | 0.0 | 1.0 | 0.00 | 0.00 | 0.00 | 96 | 1012.6 |
| 20260906105417 | 74 | 66 | 0.0 | 0.0 | 0.00 | 0.00 | 0.00 | 96 | 1012.6 |
| 20260906104918 | 73 | 360 | 0.0 | 0.0 | 0.00 | 0.00 | 0.00 | 96 | 1012.6 |
| 20260906104417 | 73 | 360 | 0.0 | 0.0 | 0.00 | 0.00 | 0.00 | 96 | 1012.5 |
| 20260906103917 | 73 | 177 | 0.0 | 0.0 | 0.00 | 0.00 | 0.00 | 97 | 1012.4 |
| 20260906103417 | 73 | 360 | 0.0 | 0.0 | 0.00 | 0.00 | 0.00 | 97 | 1012.4 |
| 20260906102920 | 73 | 118 | 0.0 | 0.0 | 0.00 | 0.00 | 0.00 | 97 | 1012.4 |
| 20260906102417 | 73 | 67 | 0.0 | 1.0 | 0.00 | 0.00 | 0.00 | 97 | 1012.4 |
| 20260906101917 | 73 | 360 | 0.0 | 0.0 | 0.00 | 0.00 | 0.00 | 97 | 1012.4 |
| 20260906101417 | 73 | 360 | 0.0 | 0.0 | 0.00 | 0.00 | 0.00 | 97 | 1012.3 |
| 20260906100917 | 73 | 68 | 0.0 | 1.0 | 0.00 | 0.00 | 0.00 | 97 | 1012.2 |
| 20260906100417 | 73 | 74 | 0.0 | 1.0 | 0.00 | 0.00 | 0.00 | 97 | 1012.2 |
| 20260906095917 | 73 | 141 | 0.0 | 0.0 | 0.00 | 0.00 | 0.00 | 98 | 1012.1 |
| 20260906095417 | 73 | 109 | 0.0 | 1.0 | 0.00 | 0.00 | 0.00 | 98 | 1012.0 |
| 20260906094918 | 73 | 360 | 0.0 | 0.0 | 0.00 | 0.00 | 0.00 | 98 | 1012.0 |
| 20260906094421 | 73 | 360 | 0.0 | 0.0 | 0.00 | 0.00 | 0.00 | 98 | 1011.9 |
| 20260906093917 | 73 | 200 | 0.0 | 0.0 | 0.00 | 0.00 | 0.00 | 98 | 1011.7 |
| 20260906093416 | 73 | 360 | 0.0 | 0.0 | 0.00 | 0.00 | 0.00 | 98 | 1011.6 |
| 20260906092917 | 73 | 90 | 0.0 | 1.0 | 0.00 | 0.00 | 0.00 | 98 | 1011.6 |
| 20260906092417 | 73 | 360 | 0.0 | 0.0 | 0.00 | 0.00 | 0.00 | 98 | 1011.6 |
| 20260906091919 | 73 | 360 | 0.0 | 0.0 | 0.00 | 0.00 | 0.00 | 99 | 1011.5 |
| 20260906091417 | 73 | 360 | 0.0 | 0.0 | 0.00 | 0.00 | 0.00 | 99 | 1011.5 |
| 20260906090917 | 72 | 76 | 0.0 | 1.0 | 0.00 | 0.00 | 0.00 | 99 | 1011.4 |
| 20260906090417 | 72 | 360 | 0.0 | 0.0 | 0.00 | 0.00 | 0.00 | 99 | 1011.5 |
| 20260906085917 | 72 | 95 | 0.0 | 0.0 | 0.00 | 0.00 | 0.00 | 99 | 1011.5 |
| 20260906085418 | 72 | 360 | 0.0 | 0.0 | 0.00 | 0.00 | 0.00 | 99 | 1011.4 |
| 20260906084917 | 72 | 360 | 0.0 | 0.0 | 0.00 | 0.00 | 0.00 | 99 | 1011.5 |
| 20260906084417 | 72 | 360 | 0.0 | 0.0 | 0.00 | 0.00 | 0.00 | 99 | 1011.4 |
| 20260906083917 | 72 | 360 | 0.0 | 0.0 | 0.00 | 0.00 | 0.00 | 99 | 1011.3 |
| 20260906083422 | 72 | 360 | 0.0 | 0.0 | 0.00 | 0.00 | 0.00 | 99 | 1011.3 |
| 20260906082917 | 71 | 360 | 0.0 | 0.0 | 0.00 | 0.00 | 0.00 | 99 | 1011.3 |
| 20260906082417 | 71 | 360 | 0.0 | 0.0 | 0.00 | 0.00 | 0.00 | 99 | 1011.3 |
| 20260906081918 | 71 | 360 | 0.0 | 0.0 | 0.00 | 0.00 | 0.00 | 99 | 1011.4 |
| 20260906081417 | 71 | 360 | 0.0 | 0.0 | 0.00 | 0.00 | 0.00 | 98 | 1011.3 |
| 20260906080917 | 70 | 360 | 0.0 | 0.0 | 0.00 | 0.00 | 0.00 | 98 | 1011.2 |
| 20260906080417 | 70 | 360 | 0.0 | 0.0 | 0.00 | 0.00 | 0.00 | 98 | 1011.0 |
| 20260906075917 | 70 | 360 | 0.0 | 0.0 | 0.00 | 0.00 | 0.00 | 98 | 1010.9 |
| 20260906075417 | 71 | 360 | 0.0 | 0.0 | 0.00 | 0.00 | 0.00 | 98 | 1010.9 |
| 20260906074917 | 71 | 360 | 0.0 | 0.0 | 0.00 | 0.00 | 0.00 | 98 | 1010.9 |
| 20260906074417 | 71 | 360 | 0.0 | 0.0 | 0.00 | 0.00 | 0.00 | 98 | 1010.9 |
| 20260906073917 | 71 | 81 | 0.0 | 1.0 | 0.00 | 0.00 | 0.00 | 98 | 1010.8 |
| 20260906073418 | 71 | 360 | 0.0 | 0.0 | 0.00 | 0.00 | 0.00 | 98 | 1010.7 |
| 20260906072917 | 71 | 360 | 0.0 | 0.0 | 0.00 | 0.00 | 0.00 | 98 | 1010.7 |
| 20260906072417 | 71 | 360 | 0.0 | 0.0 | 0.00 | 0.00 | 0.00 | 98 | 1010.7 |
| 20260906071917 | 71 | 360 | 0.0 | 0.0 | 0.00 | 0.00 | 0.00 | 98 | 1010.8 |
| 20260906071418 | 71 | 360 | 0.0 | 0.0 | 0.00 | 0.00 | 0.00 | 98 | 1010.8 |
| 20260906070916 | 71 | 360 | 0.0 | 0.0 | 0.00 | 0.00 | 0.00 | 98 | 1010.8 |
| 20260906070417 | 71 | 360 | 0.0 | 0.0 | 0.00 | 0.00 | 0.00 | 98 | 1010.9 |
| 20260906065917 | 71 | 360 | 0.0 | 0.0 | 0.00 | 0.00 | 0.00 | 98 | 1010.9 |
| 20260906065417 | 71 | 360 | 0.0 | 0.0 | 0.00 | 0.00 | 0.00 | 98 | 1011.0 |
| 20260906064917 | 71 | 360 | 0.0 | 0.0 | 0.00 | 0.00 | 0.00 | 98 | 1010.9 |
| 20260906064417 | 71 | 360 | 0.0 | 0.0 | 0.00 | 0.00 | 0.00 | 98 | 1010.9 |
| 20260906063918 | 71 | 360 | 0.0 | 0.0 | 0.00 | 0.00 | 0.00 | 98 | 1011.0 |
| 20260906063417 | 71 | 360 | 0.0 | 0.0 | 0.00 | 0.00 | 0.00 | 98 | 1011.1 |
| 20260906062917 | 71 | 360 | 0.0 | 0.0 | 0.00 | 0.00 | 0.00 | 98 | 1011.2 |
| 20260906062417 | 71 | 360 | 0.0 | 0.0 | 0.00 | 0.00 | 0.00 | 98 | 1011.2 |
| 20260906061917 | 71 | 360 | 0.0 | 0.0 | 0.00 | 0.00 | 0.00 | 98 | 1011.1 |
| 20260906061418 | 71 | 360 | 0.0 | 0.0 | 0.00 | 0.00 | 0.00 | 98 | 1011.1 |
| 20260906060917 | 71 | 360 | 0.0 | 0.0 | 0.00 | 0.00 | 0.00 | 98 | 1011.1 |
| 20260906060416 | 71 | 360 | 0.0 | 0.0 | 0.00 | 0.00 | 0.00 | 98 | 1011.0 |
| 20260906055917 | 72 | 360 | 0.0 | 0.0 | 0.00 | 0.00 | 0.00 | 98 | 1011.2 |
| 20260906055417 | 72 | 360 | 0.0 | 0.0 | 0.00 | 0.00 | 0.00 | 98 | 1011.3 |
| 20260906054917 | 72 | 360 | 0.0 | 0.0 | 0.00 | 0.00 | 0.00 | 98 | 1011.4 |
| 20260906054417 | 72 | 360 | 0.0 | 0.0 | 0.00 | 0.00 | 0.00 | 98 | 1011.5 |
| 20260906053917 | 72 | 360 | 0.0 | 0.0 | 0.00 | 0.00 | 0.00 | 98 | 1011.6 |
| 20260906053417 | 72 | 360 | 0.0 | 0.0 | 0.00 | 0.00 | 0.00 | 97 | 1011.6 |
| 20260906052916 | 72 | 360 | 0.0 | 0.0 | 0.00 | 0.00 | 0.00 | 97 | 1011.6 |
| 20260906052417 | 72 | 360 | 0.0 | 0.0 | 0.00 | 0.00 | 0.00 | 97 | 1011.6 |
| 20260906051917 | 72 | 360 | 0.0 | 0.0 | 0.00 | 0.00 | 0.00 | 97 | 1011.7 |
| 20260906051418 | 72 | 360 | 0.0 | 0.0 | 0.00 | 0.00 | 0.00 | 97 | 1011.8 |
| 20260906050917 | 72 | 360 | 0.0 | 0.0 | 0.00 | 0.00 | 0.00 | 97 | 1011.9 |
| 20260906050417 | 73 | 360 | 0.0 | 0.0 | 0.00 | 0.00 | 0.00 | 97 | 1011.8 |
| 20260906045917 | 73 | 360 | 0.0 | 0.0 | 0.00 | 0.00 | 0.00 | 97 | 1011.8 |
| 20260906045417 | 73 | 360 | 0.0 | 0.0 | 0.00 | 0.00 | 0.00 | 97 | 1011.8 |
| 20260906044917 | 73 | 360 | 0.0 | 0.0 | 0.00 | 0.00 | 0.00 | 97 | 1011.9 |
| 20260906044417 | 73 | 360 | 0.0 | 0.0 | 0.00 | 0.00 | 0.00 | 97 | 1011.9 |
| 20260906043917 | 73 | 360 | 0.0 | 0.0 | 0.00 | 0.00 | 0.00 | 97 | 1012.0 |
| 20260906043417 | 73 | 360 | 0.0 | 0.0 | 0.00 | 0.00 | 0.00 | 97 | 1012.0 |
| 20260906042917 | 73 | 360 | 0.0 | 0.0 | 0.00 | 0.00 | 0.00 | 97 | 1012.1 |
| 20260906042417 | 73 | 360 | 0.0 | 0.0 | 0.00 | 0.00 | 0.00 | 97 | 1012.1 |
| 20260906041917 | 73 | 360 | 0.0 | 0.0 | 0.00 | 0.00 | 0.00 | 97 | 1012.1 |
| 20260906041417 | 73 | 360 | 0.0 | 0.0 | 0.00 | 0.00 | 0.00 | 97 | 1012.2 |
| 20260906040917 | 73 | 85 | 0.0 | 1.0 | 0.00 | 0.00 | 0.00 | 97 | 1012.1 |
| 20260906040417 | 73 | 360 | 0.0 | 0.0 | 0.00 | 0.00 | 0.00 | 97 | 1012.1 |
| 20260906035917 | 73 | 360 | 0.0 | 0.0 | 0.00 | 0.00 | 0.03 | 97 | 1012.2 |
| 20260906035417 | 73 | 360 | 0.0 | 0.0 | 0.00 | 0.00 | 0.03 | 97 | 1012.2 |
| 20260906034926 | 73 | 360 | 0.0 | 0.0 | 0.00 | 0.00 | 0.03 | 97 | 1012.2 |
| 20260906034417 | 73 | 67 | 0.0 | 0.0 | 0.00 | 0.00 | 0.03 | 97 | 1012.3 |
| 20260906033917 | 73 | 86 | 0.0 | 0.0 | 0.00 | 0.00 | 0.03 | 97 | 1012.2 |
| 20260906033417 | 74 | 110 | 0.0 | 1.0 | 0.00 | 0.00 | 0.03 | 98 | 1012.3 |
| 20260906032918 | 74 | 230 | 0.0 | 0.0 | 0.00 | 0.00 | 0.03 | 98 | 1012.3 |
| 20260906032416 | 74 | 147 | 0.0 | 0.0 | 0.00 | 0.00 | 0.03 | 98 | 1012.2 |
| 20260906031917 | 74 | 144 | 0.0 | 1.0 | 0.00 | 0.00 | 0.03 | 98 | 1012.2 |
| 20260906031417 | 74 | 360 | 0.0 | 0.0 | 0.00 | 0.00 | 0.03 | 98 | 1012.2 |
| 20260906030917 | 73 | 80 | 0.0 | 0.0 | 0.00 | 0.00 | 0.03 | 98 | 1012.1 |
| 20260906030418 | 73 | 257 | 0.0 | 0.0 | 0.00 | 0.00 | 0.03 | 98 | 1012.0 |
| 20260906025917 | 73 | 239 | 0.0 | 1.0 | 0.00 | 0.00 | 0.03 | 98 | 1011.9 |
| 20260906025417 | 73 | 47 | 1.0 | 1.0 | 0.00 | 0.00 | 0.03 | 98 | 1011.9 |
| 20260906024917 | 74 | 47 | 1.0 | 1.0 | 0.00 | 0.00 | 0.03 | 98 | 1011.8 |
| 20260906024417 | 74 | 50 | 1.0 | 1.0 | 0.00 | 0.00 | 0.03 | 98 | 1011.8 |
| 20260906023917 | 74 | 360 | 0.0 | 0.0 | 0.00 | 0.00 | 0.03 | 98 | 1011.9 |
| 20260906023417 | 74 | 111 | 0.0 | 0.0 | 0.00 | 0.00 | 0.03 | 97 | 1012.0 |
| 20260906022917 | 74 | 360 | 0.0 | 0.0 | 0.00 | 0.00 | 0.03 | 97 | 1011.9 |
| 20260906022417 | 74 | 40 | 0.0 | 0.0 | 0.00 | 0.00 | 0.03 | 98 | 1012.0 |
| 20260906021917 | 74 | 360 | 0.0 | 0.0 | 0.00 | 0.00 | 0.03 | 98 | 1011.9 |
| 20260906021417 | 74 | 154 | 0.0 | 1.0 | 0.00 | 0.00 | 0.03 | 98 | 1011.9 |
| 20260906020917 | 74 | 360 | 0.0 | 0.0 | 0.00 | 0.00 | 0.03 | 98 | 1011.7 |
| 20260906020417 | 74 | 47 | 0.0 | 0.0 | 0.00 | 0.00 | 0.03 | 98 | 1011.7 |
| 20260906015918 | 74 | 360 | 0.0 | 0.0 | 0.00 | 0.00 | 0.03 | 97 | 1011.7 |
| 20260906015417 | 74 | 360 | 0.0 | 0.0 | 0.00 | 0.00 | 0.03 | 97 | 1011.7 |
| 20260906014917 | 74 | 53 | 0.0 | 0.0 | 0.00 | 0.00 | 0.03 | 97 | 1011.8 |
| 20260906014417 | 74 | 360 | 0.0 | 0.0 | 0.00 | 0.00 | 0.03 | 97 | 1011.8 |
| 20260906013917 | 74 | 360 | 0.0 | 0.0 | 0.00 | 0.00 | 0.03 | 97 | 1011.7 |
| 20260906013417 | 74 | 360 | 0.0 | 0.0 | 0.00 | 0.00 | 0.03 | 97 | 1011.7 |
| 20260906012917 | 75 | 360 | 0.0 | 0.0 | 0.00 | 0.00 | 0.03 | 97 | 1011.7 |
| 20260906012417 | 75 | 360 | 0.0 | 0.0 | 0.00 | 0.00 | 0.03 | 97 | 1011.6 |
| 20260906011917 | 75 | 83 | 0.0 | 1.0 | 0.00 | 0.00 | 0.03 | 97 | 1011.6 |
| 20260906011417 | 75 | 360 | 0.0 | 0.0 | 0.00 | 0.00 | 0.03 | 97 | 1011.6 |
| 20260906010917 | 75 | 360 | 0.0 | 0.0 | 0.00 | 0.00 | 0.03 | 96 | 1011.7 |
| 20260906010420 | 75 | 360 | 0.0 | 0.0 | 0.00 | 0.00 | 0.03 | 96 | 1011.6 |
| 20260906005917 | 75 | 360 | 0.0 | 0.0 | 0.00 | 0.00 | 0.03 | 96 | 1011.5 |
| 20260906005417 | 75 | 360 | 0.0 | 0.0 | 0.00 | 0.00 | 0.03 | 97 | 1011.5 |
| 20260906004917 | 75 | 360 | 0.0 | 0.0 | 0.00 | 0.00 | 0.03 | 97 | 1011.5 |
| 20260906004417 | 75 | 76 | 0.0 | 1.0 | 0.00 | 0.00 | 0.03 | 96 | 1011.5 |
| 20260906003917 | 75 | 66 | 0.0 | 0.0 | 0.00 | 0.00 | 0.03 | 96 | 1011.4 |
| 20260906003417 | 75 | 251 | 0.0 | 1.0 | 0.00 | 0.00 | 0.03 | 96 | 1011.4 |
| 20260906002918 | 76 | 218 | 0.0 | 1.0 | 0.00 | 0.00 | 0.03 | 96 | 1011.3 |
| 20260906002417 | 76 | 75 | 1.0 | 1.0 | 0.00 | 0.00 | 0.03 | 95 | 1011.3 |
| 20260906001917 | 76 | 360 | 0.0 | 0.0 | 0.00 | 0.00 | 0.03 | 95 | 1011.2 |
| 20260906001417 | 76 | 360 | 0.0 | 0.0 | 0.00 | 0.00 | 0.03 | 95 | 1011.3 |
| 20260906000917 | 76 | 79 | 0.0 | 1.0 | 0.00 | 0.00 | 0.03 | 95 | 1011.1 |
| 20260906000418 | 76 | 360 | 0.0 | 0.0 | 0.00 | 0.00 | 0.03 | 95 | 1011.2 |
| 20260905235917 | 76 | 360 | 0.0 | 0.0 | 0.00 | 0.00 | 0.03 | 95 | 1011.1 |
| 20260905235417 | 77 | 360 | 0.0 | 0.0 | 0.00 | 0.00 | 0.03 | 94 | 1011.0 |
| 20260905234917 | 77 | 360 | 0.0 | 0.0 | 0.00 | 0.00 | 0.03 | 95 | 1010.9 |
| 20260905234417 | 77 | 163 | 0.0 | 1.0 | 0.00 | 0.00 | 0.03 | 95 | 1010.9 |
| 20260905233918 | 77 | 159 | 0.0 | 0.0 | 0.00 | 0.00 | 0.03 | 94 | 1010.6 |
| 20260905233417 | 77 | 57 | 2.0 | 2.0 | 0.00 | 0.00 | 0.03 | 93 | 1010.6 |
| 20260905232917 | 77 | 65 | 2.0 | 3.0 | 0.00 | 0.00 | 0.03 | 94 | 1010.6 |
| 20260905232417 | 77 | 47 | 1.0 | 1.0 | 0.00 | 0.00 | 0.03 | 94 | 1010.5 |
| 20260905231920 | 78 | 75 | 1.0 | 2.0 | 0.00 | 0.00 | 0.03 | 93 | 1010.4 |
| 20260905231418 | 78 | 235 | 1.0 | 3.0 | 0.00 | 0.00 | 0.03 | 92 | 1010.4 |
| 20260905230917 | 78 | 59 | 1.0 | 3.0 | 0.00 | 0.00 | 0.03 | 93 | 1010.3 |
| 20260905230417 | 78 | 196 | 1.0 | 2.0 | 0.00 | 0.00 | 0.03 | 93 | 1010.1 |
| 20260905225917 | 78 | 82 | 1.0 | 1.0 | 0.00 | 0.00 | 0.03 | 93 | 1010.1 |
| 20260905225417 | 77 | 44 | 1.0 | 3.0 | 0.00 | 0.00 | 0.03 | 93 | 1009.9 |
| 20260905224917 | 77 | 217 | 1.0 | 3.0 | 0.00 | 0.00 | 0.03 | 95 | 1009.8 |
| 20260905224419 | 77 | 50 | 3.0 | 4.0 | 0.00 | 0.00 | 0.03 | 95 | 1009.7 |
| 20260905223917 | 77 | 81 | 1.0 | 2.0 | 0.00 | 0.00 | 0.03 | 95 | 1009.5 |
| 20260905223418 | 77 | 237 | 3.0 | 4.0 | 0.00 | 0.00 | 0.03 | 95 | 1009.6 |
| 20260905222917 | 77 | 71 | 0.0 | 1.0 | 0.00 | 0.00 | 0.03 | 95 | 1009.8 |
| 20260905222417 | 76 | 62 | 1.0 | 1.0 | 0.00 | 0.00 | 0.03 | 96 | 1010.1 |
| 20260905221917 | 76 | 57 | 0.0 | 0.0 | 0.00 | 0.00 | 0.03 | 95 | 1010.3 |
| 20260905221417 | 77 | 89 | 1.0 | 1.0 | 0.00 | 0.00 | 0.03 | 95 | 1010.6 |
| 20260905220917 | 76 | 360 | 0.0 | 0.0 | 0.00 | 0.00 | 0.03 | 95 | 1010.6 |
| 20260905220417 | 76 | 62 | 1.0 | 2.0 | 0.00 | 0.00 | 0.03 | 95 | 1010.6 |
| 20260905215917 | 76 | 360 | 0.0 | 0.0 | 0.00 | 0.00 | 0.04 | 94 | 1010.6 |
| 20260905215417 | 76 | 360 | 0.0 | 0.0 | 0.00 | 0.00 | 0.04 | 94 | 1010.6 |
| 20260905214917 | 76 | 360 | 0.0 | 0.0 | 0.00 | 0.00 | 0.04 | 94 | 1010.6 |
| 20260905214417 | 76 | 360 | 0.0 | 0.0 | 0.00 | 0.00 | 0.04 | 94 | 1010.6 |
| 20260905213917 | 76 | 360 | 0.0 | 0.0 | 0.00 | 0.00 | 0.04 | 95 | 1010.4 |
| 20260905213417 | 76 | 75 | 1.0 | 1.0 | 0.00 | 0.00 | 0.04 | 95 | 1010.2 |
| 20260905212917 | 76 | 90 | 1.0 | 1.0 | 0.00 | 0.00 | 0.04 | 94 | 1010.0 |
| 20260905212422 | 76 | 47 | 1.0 | 2.0 | 0.00 | 0.00 | 0.04 | 93 | 1010.0 |
| 20260905211917 | 76 | 52 | 0.0 | 0.0 | 0.00 | 0.00 | 0.05 | 94 | 1010.2 |
| 20260905211417 | 76 | 70 | 1.0 | 2.0 | 0.00 | 0.00 | 0.05 | 93 | 1010.2 |
| 20260905210917 | 77 | 360 | 0.0 | 0.0 | 0.00 | 0.00 | 0.04 | 92 | 1010.2 |
| 20260905210417 | 77 | 54 | 1.0 | 1.0 | 0.00 | 0.00 | 0.04 | 91 | 1010.0 |
| 20260905205917 | 77 | 360 | 0.0 | 0.0 | 0.00 | 0.00 | 0.04 | 89 | 1010.1 |
| 20260905205416 | 77 | 360 | 0.0 | 0.0 | 0.00 | 0.00 | 0.03 | 89 | 1010.3 |
| 20260905204917 | 77 | 360 | 0.0 | 0.0 | 0.00 | 0.00 | 0.03 | 89 | 1010.2 |
| 20260905204418 | 77 | 259 | 1.0 | 2.0 | 0.00 | 0.00 | 0.03 | 88 | 1010.0 |
| 20260905203917 | 78 | 360 | 0.0 | 0.0 | 0.00 | 0.00 | 0.02 | 86 | 1009.9 |
| 20260905203419 | 78 | 224 | 0.0 | 0.0 | 0.00 | 0.00 | 0.02 | 86 | 1009.9 |
| 20260905202917 | 78 | 360 | 0.0 | 0.0 | 0.00 | 0.00 | 0.01 | 86 | 1009.9 |
| 20260905202417 | 80 | 88 | 1.0 | 2.0 | 0.00 | 0.00 | 0.01 | 83 | 1009.8 |
| 20260905201917 | 81 | 65 | 1.0 | 3.0 | 0.00 | 0.00 | 0.01 | 79 | 1009.9 |
| 20260905201417 | 82 | 207 | 0.0 | 2.0 | 0.00 | 0.00 | 0.01 | 74 | 1009.7 |
| 20260905200917 | 83 | 74 | 1.0 | 3.0 | 0.00 | 0.00 | 0.01 | 69 | 1009.6 |
| 20260905200417 | 84 | 76 | 2.0 | 2.0 | 0.00 | 0.00 | 0.00 | 67 | 1009.9 |
| 20260905195917 | 84 | 226 | 3.0 | 7.0 | 0.00 | 0.00 | 0.00 | 65 | 1010.3 |
| 20260905195417 | 85 | 71 | 2.0 | 3.0 | 0.00 | 0.00 | 0.00 | 66 | 1010.7 |
| 20260905194917 | 86 | 81 | 3.0 | 7.0 | 0.00 | 0.00 | 0.00 | 64 | 1011.1 |
| 20260905194417 | 87 | 156 | 0.0 | 2.0 | 0.00 | 0.00 | 0.00 | 63 | 1010.6 |
| 20260905193917 | 89 | 37 | 2.0 | 7.0 | 0.00 | 0.00 | 0.00 | 62 | 1010.4 |
| 20260905193417 | 92 | 66 | 4.0 | 7.0 | 0.00 | 0.00 | 0.00 | 58 | 1010.4 |
| 20260905192917 | 94 | 50 | 2.0 | 5.0 | 0.00 | 0.00 | 0.00 | 52 | 1009.9 |
| 20260905192417 | 95 | 65 | 1.0 | 2.0 | 0.00 | 0.00 | 0.00 | 50 | 1009.5 |
| 20260905191917 | 95 | 360 | 0.0 | 0.0 | 0.00 | 0.00 | 0.00 | 49 | 1009.4 |
| 20260905191417 | 95 | 19 | 0.0 | 1.0 | 0.00 | 0.00 | 0.00 | 48 | 1009.3 |
| 20260905190917 | 95 | 76 | 0.0 | 1.0 | 0.00 | 0.00 | 0.00 | 48 | 1009.4 |
| 20260905190417 | 96 | 360 | 0.0 | 0.0 | 0.00 | 0.00 | 0.00 | 49 | 1009.3 |
| 20260905185917 | 96 | 26 | 0.0 | 2.0 | 0.00 | 0.00 | 0.00 | 49 | 1009.1 |
| 20260905185417 | 96 | 274 | 0.0 | 0.0 | 0.00 | 0.00 | 0.00 | 47 | 1009.2 |
| 20260905184917 | 96 | 1 | 0.0 | 1.0 | 0.00 | 0.00 | 0.00 | 48 | 1009.3 |
| 20260905184417 | 97 | 102 | 0.0 | 2.0 | 0.00 | 0.00 | 0.00 | 46 | 1009.3 |
| 20260905183918 | 97 | 57 | 2.0 | 4.0 | 0.00 | 0.00 | 0.00 | 46 | 1009.4 |
| 20260905183417 | 97 | 31 | 2.0 | 2.0 | 0.00 | 0.00 | 0.00 | 49 | 1009.4 |
| 20260905182917 | 98 | 220 | 3.0 | 5.0 | 0.00 | 0.00 | 0.00 | 43 | 1009.4 |
| 20260905182417 | 98 | 230 | 1.0 | 4.0 | 0.00 | 0.00 | 0.00 | 45 | 1009.5 |
| 20260905181917 | 98 | 84 | 1.0 | 3.0 | 0.00 | 0.00 | 0.00 | 44 | 1009.7 |
| 20260905181417 | 98 | 249 | 1.0 | 2.0 | 0.00 | 0.00 | 0.00 | 43 | 1009.9 |
| 20260905180917 | 98 | 59 | 2.0 | 4.0 | 0.00 | 0.00 | 0.00 | 47 | 1010.0 |
| 20260905180417 | 97 | 68 | 2.0 | 5.0 | 0.00 | 0.00 | 0.00 | 50 | 1010.0 |
| 20260905175918 | 97 | 238 | 2.0 | 3.0 | 0.00 | 0.00 | 0.00 | 46 | 1010.1 |
| 20260905175417 | 97 | 63 | 1.0 | 4.0 | 0.00 | 0.00 | 0.00 | 50 | 1010.3 |
| 20260905174918 | 97 | 266 | 0.0 | 2.0 | 0.00 | 0.00 | 0.00 | 49 | 1010.4 |
| 20260905174417 | 97 | 53 | 0.0 | 2.0 | 0.00 | 0.00 | 0.00 | 48 | 1010.6 |
| 20260905173917 | 97 | 226 | 1.0 | 3.0 | 0.00 | 0.00 | 0.00 | 47 | 1010.9 |
| 20260905173417 | 97 | 90 | 2.0 | 4.0 | 0.00 | 0.00 | 0.00 | 50 | 1010.9 |
| 20260905172918 | 97 | 57 | 2.0 | 4.0 | 0.00 | 0.00 | 0.00 | 49 | 1011.0 |
| 20260905172417 | 98 | 54 | 2.0 | 6.0 | 0.00 | 0.00 | 0.00 | 50 | 1010.9 |
| 20260905171917 | 97 | 239 | 0.0 | 1.0 | 0.00 | 0.00 | 0.00 | 50 | 1011.0 |
| 20260905171417 | 97 | 241 | 1.0 | 2.0 | 0.00 | 0.00 | 0.00 | 48 | 1011.1 |
| 20260905170917 | 96 | 257 | 0.0 | 1.0 | 0.00 | 0.00 | 0.00 | 50 | 1011.3 |
| 20260905170417 | 96 | 67 | 2.0 | 5.0 | 0.00 | 0.00 | 0.00 | 53 | 1011.4 |
| 20260905165918 | 96 | 73 | 2.0 | 6.0 | 0.00 | 0.00 | 0.00 | 51 | 1011.4 |
| 20260905165417 | 96 | 82 | 1.0 | 2.0 | 0.00 | 0.00 | 0.00 | 52 | 1011.5 |
| 20260905164945 | 96 | 46 | 1.0 | 2.0 | 0.00 | 0.00 | 0.00 | 51 | 1011.5 |
| 20260905164417 | 96 | 66 | 1.0 | 4.0 | 0.00 | 0.00 | 0.00 | 52 | 1011.6 |
| 20260905163919 | 95 | 42 | 1.0 | 4.0 | 0.00 | 0.00 | 0.00 | 56 | 1011.6 |
| 20260905163417 | 94 | 213 | 0.0 | 2.0 | 0.00 | 0.00 | 0.00 | 54 | 1011.6 |
| 20260905162917 | 94 | 143 | 1.0 | 2.0 | 0.00 | 0.00 | 0.00 | 54 | 1011.7 |
| 20260905162418 | 94 | 233 | 2.0 | 4.0 | 0.00 | 0.00 | 0.00 | 55 | 1011.8 |
| 20260905161917 | 94 | 229 | 1.0 | 2.0 | 0.00 | 0.00 | 0.00 | 52 | 1011.9 |
| 20260905161417 | 94 | 323 | 0.0 | 2.0 | 0.00 | 0.00 | 0.00 | 55 | 1012.0 |
| 20260905160918 | 94 | 87 | 0.0 | 0.0 | 0.00 | 0.00 | 0.00 | 58 | 1012.0 |
| 20260905160417 | 93 | 61 | 0.0 | 2.0 | 0.00 | 0.00 | 0.00 | 59 | 1012.1 |
| 20260905155918 | 93 | 250 | 2.0 | 4.0 | 0.00 | 0.00 | 0.00 | 57 | 1012.1 |
| 20260905155417 | 92 | 238 | 1.0 | 2.0 | 0.00 | 0.00 | 0.00 | 57 | 1012.3 |
| 20260905154917 | 92 | 207 | 0.0 | 2.0 | 0.00 | 0.00 | 0.00 | 60 | 1012.4 |
| 20260905154417 | 91 | 269 | 1.0 | 5.0 | 0.00 | 0.00 | 0.00 | 59 | 1012.4 |
| 20260905153917 | 91 | 243 | 2.0 | 4.0 | 0.00 | 0.00 | 0.00 | 59 | 1012.5 |
| 20260905153417 | 91 | 34 | 1.0 | 3.0 | 0.00 | 0.00 | 0.00 | 60 | 1012.6 |
| 20260905152917 | 91 | 78 | 2.0 | 4.0 | 0.00 | 0.00 | 0.00 | 62 | 1012.6 |
| 20260905152417 | 90 | 360 | 0.0 | 0.0 | 0.00 | 0.00 | 0.00 | 64 | 1012.6 |
| 20260905151916 | 90 | 63 | 0.0 | 2.0 | 0.00 | 0.00 | 0.00 | 63 | 1012.7 |
| 20260905151417 | 90 | 212 | 0.0 | 3.0 | 0.00 | 0.00 | 0.00 | 61 | 1012.7 |
| 20260905150917 | 89 | 68 | 3.0 | 6.0 | 0.00 | 0.00 | 0.00 | 66 | 1012.7 |
| 20260905150418 | 88 | 360 | 0.0 | 0.0 | 0.00 | 0.00 | 0.00 | 65 | 1012.7 |
| 20260905145917 | 89 | 226 | 2.0 | 3.0 | 0.00 | 0.00 | 0.00 | 64 | 1012.7 |
| 20260905145417 | 88 | 360 | 0.0 | 0.0 | 0.00 | 0.00 | 0.00 | 67 | 1012.7 |
| 20260905144917 | 88 | 222 | 0.0 | 2.0 | 0.00 | 0.00 | 0.00 | 67 | 1012.8 |
| 20260905144417 | 88 | 237 | 2.0 | 4.0 | 0.00 | 0.00 | 0.00 | 65 | 1012.8 |
| 20260905143917 | 88 | 195 | 0.0 | 2.0 | 0.00 | 0.00 | 0.00 | 66 | 1012.8 |
| 20260905143417 | 87 | 229 | 1.0 | 3.0 | 0.00 | 0.00 | 0.00 | 68 | 1012.7 |
| 20260905142917 | 87 | 245 | 0.0 | 2.0 | 0.00 | 0.00 | 0.00 | 69 | 1012.7 |
| 20260905142417 | 86 | 268 | 2.0 | 6.0 | 0.00 | 0.00 | 0.00 | 69 | 1012.7 |
| 20260905141918 | 86 | 47 | 1.0 | 2.0 | 0.00 | 0.00 | 0.00 | 72 | 1012.7 |
| 20260905141418 | 85 | 224 | 2.0 | 2.0 | 0.00 | 0.00 | 0.00 | 70 | 1012.7 |
| 20260905140917 | 85 | 46 | 2.0 | 3.0 | 0.00 | 0.00 | 0.00 | 71 | 1012.7 |
| 20260905140417 | 85 | 223 | 2.0 | 3.0 | 0.00 | 0.00 | 0.00 | 73 | 1012.6 |
| 20260905135917 | 85 | 45 | 2.0 | 2.0 | 0.00 | 0.00 | 0.00 | 74 | 1012.6 |
| 20260905135417 | 84 | 47 | 3.0 | 4.0 | 0.00 | 0.00 | 0.00 | 77 | 1012.6 |
| 20260905134916 | 84 | 119 | 1.0 | 3.0 | 0.00 | 0.00 | 0.00 | 76 | 1012.6 |
| 20260905134417 | 84 | 50 | 1.0 | 2.0 | 0.00 | 0.00 | 0.00 | 76 | 1012.6 |
| 20260905133917 | 83 | 232 | 2.0 | 2.0 | 0.00 | 0.00 | 0.00 | 77 | 1012.6 |
| 20260905133417 | 83 | 226 | 2.0 | 2.0 | 0.00 | 0.00 | 0.00 | 76 | 1012.6 |
| 20260905132917 | 82 | 223 | 2.0 | 2.0 | 0.00 | 0.00 | 0.00 | 78 | 1012.7 |
| 20260905132417 | 82 | 48 | 1.0 | 2.0 | 0.00 | 0.00 | 0.00 | 81 | 1012.7 |
| 20260905131917 | 81 | 220 | 2.0 | 2.0 | 0.00 | 0.00 | 0.00 | 82 | 1012.7 |
| 20260905131417 | 80 | 226 | 1.0 | 2.0 | 0.00 | 0.00 | 0.00 | 83 | 1012.7 |
| 20260905130917 | 80 | 226 | 2.0 | 2.0 | 0.00 | 0.00 | 0.00 | 84 | 1012.7 |
| 20260905130417 | 79 | 81 | 2.0 | 3.0 | 0.00 | 0.00 | 0.00 | 86 | 1012.8 |
| 20260905125917 | 79 | 220 | 2.0 | 4.0 | 0.00 | 0.00 | 0.00 | 86 | 1012.7 |
| 20260905125417 | 78 | 221 | 3.0 | 4.0 | 0.00 | 0.00 | 0.00 | 87 | 1012.9 |
| 20260905124917 | 78 | 217 | 3.0 | 4.0 | 0.00 | 0.00 | 0.00 | 87 | 1012.9 |
| 20260905124417 | 77 | 53 | 0.0 | 0.0 | 0.00 | 0.00 | 0.00 | 89 | 1013.0 |
| 20260905123917 | 77 | 72 | 0.0 | 0.0 | 0.00 | 0.00 | 0.00 | 89 | 1013.0 |
| 20260905123417 | 76 | 128 | 0.0 | 1.0 | 0.00 | 0.00 | 0.00 | 91 | 1013.0 |
| 20260905122919 | 76 | 360 | 0.0 | 0.0 | 0.00 | 0.00 | 0.00 | 92 | 1013.0 |
| 20260905122418 | 75 | 234 | 1.0 | 4.0 | 0.00 | 0.00 | 0.00 | 94 | 1013.0 |
| 20260905121917 | 75 | 236 | 0.0 | 1.0 | 0.00 | 0.00 | 0.00 | 94 | 1012.9 |
| 20260905121417 | 74 | 360 | 0.0 | 0.0 | 0.00 | 0.00 | 0.00 | 95 | 1012.9 |
| 20260905120917 | 74 | 360 | 0.0 | 0.0 | 0.00 | 0.00 | 0.00 | 95 | 1012.8 |
| 20260905120417 | 74 | 360 | 0.0 | 0.0 | 0.00 | 0.00 | 0.00 | 94 | 1012.7 |
| 20260905115917 | 73 | 360 | 0.0 | 0.0 | 0.00 | 0.00 | 0.00 | 95 | 1012.7 |
| 20260905115417 | 73 | 64 | 0.0 | 1.0 | 0.00 | 0.00 | 0.00 | 95 | 1012.7 |
| 20260905114916 | 73 | 360 | 0.0 | 0.0 | 0.00 | 0.00 | 0.00 | 95 | 1012.7 |
| 20260905114417 | 73 | 360 | 0.0 | 0.0 | 0.00 | 0.00 | 0.00 | 96 | 1012.6 |
| 20260905113917 | 73 | 360 | 0.0 | 0.0 | 0.00 | 0.00 | 0.00 | 96 | 1012.6 |
| 20260905113417 | 73 | 360 | 0.0 | 0.0 | 0.00 | 0.00 | 0.00 | 96 | 1012.6 |
| 20260905112917 | 73 | 360 | 0.0 | 0.0 | 0.00 | 0.00 | 0.00 | 96 | 1012.6 |